CZ-6A DEB, 54580

Orbit data source: Space-Track

CZ-6A DEB, 54580 is space debris in SSO originally from a launch on Fri, 11 Nov 2022 UTC launched from the Taiyaun Space Center, China (TSC). Debris objects in space refer to the collection of defunct objects orbiting the Earth. Examples of debris include non-operational satellites, rocket bodies, and fragments generated from explosions, collisions, or faulty payload assembly.

Loading next visibility...
Identifier
54580, 2022-151MG
Orbit
SSO
Country
Flag of CNCN / PRC
Related business
Manufacturer
SAST
Mission
Spacecraft
Bus & Motor
Unknown
Mass
Unknown
Launch date (UTC)
2022-11-11 (3 years ago)
Launch vehicle
Unknown
Launch site
Taiyaun Space Center, China (TSC)
Object type
Payload
Rocket body
Debris
Shape & HBR
Unknown shape, 0.1 m
Radar Cross Section
Small (<0.1 m²)

Expand to show TLE details & history
Last TLE update: 16 hours ago

TLE from 16 hours ago
0 CZ-6A DEB
1 54580U 22151MG  26129.99857715  .00003267  00000-0  13885-2 0  9999
2 54580  98.8602 145.4039 0089665 112.9915 248.0752 14.23802288179389
Epoch: 2026-05-09T23:57Z
TLE epoch observation values (Epoch: 2026-05-09T23:57:57.065Z)
Latitude
-0.00008°
Longitude
-81.89183°
Altitude
840.012 km
Speed
7.42 km/s
True Right ascension
09h 41m 36s
True Declination
0° 00' 00"
Sunlit
Object was in daylight at epoch
Visualization orbit readout
Latitude
Unknown
Longitude
Unknown
Altitude
Unknown
Speed
Unknown
Apparent Right ascension
Unknown
Apparent Declination
Unknown
Sunlit
N/A
Visualization observer readout
Local Sidereal Time
00:21:34
Azimuth
Unknown
Elevation
Unknown
Doppler factor
Unknown
Orbital elements
Apogee altitude
874.132 km
Perigee altitude
745.233 km
Semi-major axis
7,187.82 km
Eccentricity
0.00897
Inclination
98.8602°
RAAN
145.4039°
Arg. of periapsis
112.9915°
True anomaly
247.12604°
Mean anomaly
248.0752°
Eccentric anomaly
247.60022°
Mean motion
3.56162 °/min
Orbital period
101.08 mins
BSTAR
0.0013885
Loading maneuver chart data...
Computing Atmospheric mass density...
Loading historical data...
Loading historical data...
Loading historical data...
Loading historical data...
Loading historical data...
Loading historical data...
Loading historical data...

Documentation

Showing up to 5 results
|